Showing default

EXPLORER 40 (INJUN-5), 3338

Orbit data source: Space-Track

EXPLORER 40 (INJUN-5), 3338 is a payload satellite owned by NASA LaRC (US) in LEO that was launched on Thu, 08 Aug 1968 UTC via an SCOUT B launch vehicle from the Air Force Western Test Range (AFWTR). Payload-class satellites include a variety of spacecraft equipped with specific instruments for various scientific and technological missions. These include communications satellites like Starlink; space stations such as the ISS; scientific satellites like the Hubble; Earth observation satellites from companies like Planet Labs, Umbra, and HawkEye 360; GPS; miniature CubeSats for education and research; and military/defense satellites.

Loading next visibility...
Identifier
3338, 1968-066B
Orbit
LEO
Country
Flag of USUS
Related business
Manufacturer
Iowa
Mission
Civil Science
Bus & Motor
INJUN E, Unknown motor
Mass
70 kg wet, 70 kg dry
Launch date (UTC)
1968-08-08 (57 years ago)
Launch vehicle
SCOUT B
Launch site
Air Force Western Test Range (AFWTR)
Object type
Payload
Rocket body
Debris
Shape & HBR
Hex Cyl, 0.4 m
Radar Cross Section
0.609 m², Large (>1 m²)

Expand to show TLE details & history
Last TLE update: 16 hours ago

TLE from 16 hours ago
0 EXPLORER 40 (INJUN-5)
1 03338U 68066B   25260.57894914  .00000111  00000-0  10123-3 0  9998
2 03338  80.6581 295.3838 1131231 138.7242 230.5192 12.23465115544975
Epoch: 2025-09-17T13:53Z
TLE epoch observation values (Epoch: 2025-09-17T13:53:41.205Z)
Latitude
-0.00009°
Longitude
90.20922°
Altitude
2,206.972 km
Speed
6.541 km/s
True Right ascension
19h 41m 32s
True Declination
0° 00' 00"
Sunlit
Object was in daylight at epoch
Visualization orbit readout
Latitude
Unknown
Longitude
Unknown
Altitude
Unknown
Speed
Unknown
Apparent Right ascension
Unknown
Apparent Declination
Unknown
Sunlit
N/A
Visualization observer readout
Local Sidereal Time
22:40:52
Azimuth
Unknown
Elevation
Unknown
Doppler factor
Unknown
Orbital elements
Apogee altitude
2,474.562 km
Perigee altitude
675.22 km
Semi-major axis
7,953.028 km
Eccentricity
0.11312
Inclination
80.6581°
RAAN
295.3838°
Arg. of periapsis
138.7242°
True anomaly
221.38003°
Mean anomaly
230.5192°
Eccentric anomaly
225.86726°
Mean motion
3.06016 °/min
Orbital period
117.64 mins
BSTAR
0.00010123
Loading maneuver chart data...
Computing Atmospheric mass density...
Loading historical data...
Loading historical data...
Loading historical data...
Loading historical data...
Loading historical data...
Loading historical data...
Loading historical data...

Documentation

Showing up to 5 results
|